Погода в Арзгуне

Россия / Республика Бурятия     54°22′40″N   110°44′06″E
темп.,
°C
ветер,
м/с
пор.,
м/с
влажн.,
%
обл.,
%
осадки,
мм/ч
давл.,
гПа
погр.,
м
6 марта, сб
сб623:00−25ссв228864 0.0 103526
02:00−25св118482 0.0 103320
05:00−28ссз00810 0.0 103119
08:00−24ююв118350 0.0 103020
11:00−19юз1181100 0.0 1028174
14:00−15юз237974 0.0 1025280
17:00−15ююз018956 0.0 1025134
20:00−17ссв229578 0.1 102720
7 марта, вс
вс723:00−18ссв229599 0.1 102733
02:00−19ссв229692 0.2 102735
05:00−20ссв129689 0.0 102520
08:00−18ссв129790 0.1 102460
11:00−13с019284 0.1 1021223
14:00−10юз129291 0.2 1018240
17:00−10юз129471 0.1 1016121
20:00−15с019639 0.1 101720
8 марта, пн
пн823:00−16св119787 0.0 101620
02:00−15ю119794 0.1 101620
05:00−15ююв1198100 0.1 101620
08:00−12в1197100 0.3 101742
11:00−7ююз4793100 0.1 1015540
14:00−4зюз6116889 0.3 10172013
17:00−8зюз467466 0.2 1021213
20:00−16зюз227832 0.2 102724
9 марта, вт
вт923:00−19вюв01830 0.0 103020
02:00−21ссв12830 0.0 103220
05:00−22ссв22860 0.0 103320
08:00−21ссв228530 0.0 103324
11:00−15св1284100 0.0 1028280
14:00−11ююз1185100 0.0 1024298
17:00−13ююз2295100 0.0 1022127
20:00−17ю009191 0.0 102420
10 марта, ср
ср1023:00−18св11924 0.0 102320
02:00−17св119751 0.1 102220
05:00−17ссв1198100 0.2 102322
08:00−16юз0196100 0.3 102621
11:00−9ююз138898 0.0 1026340
14:00−6ююз457984 0.0 1026783
17:00−7ююз37842 0.0 1026411
20:00−14ссв118210 0.0 102821